Theta_e
355 355 355 354 353 352 353 354 354 354 353 353 351 351 352 354 353 354 355 357 358 357 357 359 359 359 358 360 361 360 360 359 360 361 361 359 358 359 358 358 357 355 357 357 358 356 356 355 355 357 357 354 353 355 354 351 352 351 353 347 345 348 345 340 338 339 340 347 351 350 353 356 350 353 352 355 356 357 360 359 360 359 360 359 359
351 354 355 355 353 352 353 354 354 353 353 352 352 350 350 352 352 352 352 353 356 357 357 358 359 359 358 358 359 360 360 360 360 361 361 358 357 361 360 358 357 356 354 355 356 358 356 353 354 356 357 354 353 354 353 352 351 350 347 351 346 345 347 343 338 338 337 341 344 348 350 355 350 351 355 354 355 359 357 357 358 357 358 357 355
353 351 350 350 351 353 353 353 353 353 353 352 352 351 350 350 351 351 352 352 354 357 356 356 357 358 357 357 357 358 359 359 360 359 360 359 357 359 360 358 357 356 356 356 357 356 355 354 354 355 359 355 353 352 353 352 351 349 347 347 347 347 347 345 342 339 339 341 342 346 345 348 351 350 353 357 357 356 354 355 356 358 359 358 357
354 353 352 352 350 350 351 353 353 353 352 352 351 352 351 349 351 350 351 352 352 353 356 356 356 356 356 355 354 355 356 358 358 359 359 360 358 358 358 358 357 357 357 357 357 357 355 354 354 355 356 353 352 351 352 351 349 349 348 348 347 346 345 348 346 343 341 341 341 344 347 348 349 351 356 356 356 356 356 356 357 357 358 359 357
351 351 351 351 350 349 350 352 352 352 352 352 351 351 351 349 349 350 349 350 351 352 353 355 355 355 355 354 353 352 354 356 356 357 359 360 359 359 358 356 356 356 356 356 362 357 356 355 355 355 355 353 352 351 352 350 350 349 349 349 349 349 348 349 350 348 344 343 344 345 347 349 351 353 353 354 355 353 353 353 355 357 358 360 359
351 350 350 350 348 347 348 347 348 350 351 352 352 350 350 349 348 350 349 348 349 351 351 352 354 354 354 354 353 353 352 354 355 356 357 358 359 358 358 357 356 355 355 356 357 359 357 356 355 355 355 354 353 352 352 352 351 350 348 348 349 349 347 346 346 347 346 345 344 344 344 349 350 351 352 352 352 351 353 355 356 356 355 355 357
351 349 352 351 349 350 350 349 347 345 345 347 349 348 345 345 347 348 350 348 347 348 350 351 353 353 354 354 353 353 352 353 354 354 354 356 357 357 356 355 355 355 356 356 357 357 358 357 355 354 354 354 354 353 352 352 353 350 350 349 347 347 348 347 346 345 346 345 345 346 348 349 351 350 350 352 352 353 352 352 352 353 352 352 355
350 350 349 349 348 349 349 351 350 348 351 349 347 348 347 346 348 346 348 348 347 346 347 350 351 352 352 353 353 354 352 352 353 353 352 352 354 355 355 355 354 353 354 355 356 357 357 357 356 355 355 354 353 353 352 350 351 350 351 350 349 347 346 346 346 346 345 345 345 346 344 345 345 350 353 351 351 349 349 351 346 345 346 347 351
350 349 348 346 346 348 350 351 352 351 352 350 348 349 349 347 347 348 350 348 348 346 346 348 350 351 351 352 352 353 353 352 353 353 352 351 351 351 352 353 353 353 352 352 353 354 354 355 354 353 355 364 362 360 359 359 351 349 349 349 349 347 346 345 345 342 342 343 344 345 344 346 347 348 348 347 348 349 350 344 343 347 348 350 353
348 348 349 350 351 350 350 352 351 352 352 350 349 349 347 349 350 349 351 350 348 348 345 344 347 350 350 351 351 351 352 353 355 350 352 354 352 352 351 351 351 351 351 350 350 350 351 351 353 363 366 363 356 354 350 354 361 355 350 348 348 347 346 345 344 343 343 341 341 342 342 343 345 347 347 348 349 347 346 346 345 347 346 346 348
344 343 344 347 350 353 352 351 351 350 349 349 350 350 350 351 351 350 350 348 347 348 347 344 342 345 349 350 350 351 351 353 347 338 339 345 354 352 351 350 350 349 349 349 348 349 349 348 349 355 364 370 362 352 347 345 346 352 357 358 358 349 345 344 344 344 344 343 343 343 343 344 345 347 347 348 348 348 347 346 345 344 342 339 339
342 342 343 342 343 345 347 350 351 350 351 351 352 352 352 351 349 349 348 348 347 349 345 344 343 342 344 347 350 351 351 350 337 334 336 336 346 353 351 351 351 349 348 348 348 348 347 347 347 348 348 348 349 353 355 351 344 343 344 347 350 352 353 349 346 345 345 345 345 346 345 345 346 347 347 348 348 346 346 345 343 342 341 340 336
340 340 342 342 342 342 344 345 346 347 350 350 350 352 352 351 349 349 350 350 349 346 345 345 345 343 342 342 345 350 351 343 334 333 333 333 334 347 352 351 350 350 349 348 347 346 346 346 345 346 346 359 359 350 345 348 347 342 340 341 344 343 339 340 346 351 349 348 347 347 348 348 347 349 350 349 346 345 345 344 342 340 341 339 339
337 339 340 341 341 342 342 343 344 345 348 350 349 350 351 348 351 352 353 350 348 347 347 346 345 345 345 342 343 345 348 345 332 330 330 330 331 336 351 352 351 351 350 349 348 346 345 345 345 345 345 345 346 345 345 346 347 348 347 346 345 349 346 340 339 340 346 351 349 348 350 350 349 349 353 350 347 348 347 346 344 342 343 344 345
334 335 336 338 339 340 341 342 342 343 345 348 348 348 347 346 348 349 351 351 350 348 347 346 346 348 347 347 344 343 346 339 330 327 326 326 329 333 348 352 352 351 351 351 349 348 347 346 345 345 345 344 344 346 342 340 341 344 345 345 345 345 345 346 346 346 346 346 349 351 352 352 352 353 353 353 353 353 352 350 348 347 347 345 346
330 332 331 333 335 337 341 342 342 342 342 344 345 346 345 346 347 349 351 351 352 352 351 350 349 348 348 347 348 346 345 333 328 325 324 324 326 339 344 348 350 351 351 351 350 349 348 347 345 345 345 344 349 343 348 347 341 340 340 342 343 345 345 349 339 341 349 347 346 347 348 350 343 350 350 348 346 346 349 348 345 346 344 341 340
330 330 331 331 333 335 337 338 341 342 341 341 341 343 344 346 347 349 349 350 350 351 351 352 351 350 350 349 347 347 349 337 326 320 320 321 325 339 342 345 348 349 350 350 350 350 349 347 346 345 345 344 343 332 333 345 343 342 341 340 341 342 343 347 338 331 331 330 331 332 332 332 331 329 327 328 335 338 337 336 337 339 336 334 336
330 330 329 330 331 332 335 337 337 337 337 339 341 343 345 345 346 349 348 349 349 350 351 352 352 352 350 350 349 348 349 339 323 322 316 317 327 337 340 342 344 346 347 349 350 349 349 356 359 346 344 345 337 330 330 338 340 341 341 340 340 340 342 346 349 348 330 326 326 328 329 329 329 329 329 329 328 334 335 335 340 338 336 335 334
329 329 329 330 331 331 331 334 335 335 335 336 343 344 344 345 348 348 348 349 349 349 351 350 351 351 351 351 355 354 351 345 325 323 320 315 322 332 337 339 341 342 344 346 348 349 348 353 356 351 347 343 331 329 328 336 340 341 341 340 340 339 342 344 345 346 346 345 345 343 341 340 341 339 341 334 334 345 339 339 341 338 336 337 336
327 330 329 330 330 330 330 332 333 333 333 335 343 343 344 342 343 345 347 348 348 349 351 351 350 351 352 352 352 351 351 350 347 326 317 313 317 335 335 336 338 340 342 343 344 346 347 347 348 334 328 328 326 324 323 323 339 343 343 342 341 341 345 345 345 345 343 344 343 344 346 347 348 348 348 347 347 349 343 341 340 340 338 338 338
324 324 324 329 330 329 329 330 331 330 331 333 343 339 338 338 340 341 343 345 346 347 349 350 351 351 352 352 352 352 353 350 349 331 323 317 313 325 334 335 337 339 340 341 343 344 344 346 347 339 326 322 320 319 317 317 326 343 345 344 345 345 346 341 343 354 346 344 343 343 342 342 343 345 346 346 346 346 345 341 342 341 340 339 338
322 322 323 326 331 329 329 329 331 330 332 335 337 332 334 336 338 339 342 344 345 345 344 345 346 348 350 352 352 351 354 354 353 339 327 319 314 313 333 338 339 339 339 339 340 341 343 344 345 340 327 322 319 316 315 316 317 332 339 327 327 327 337 343 342 342 341 341 342 342 343 342 342 342 344 346 347 348 347 346 343 342 343 343 342
322 322 324 324 326 329 330 329 328 330 331 334 334 331 332 334 335 339 341 340 340 340 341 341 341 341 342 344 348 351 350 351 346 349 336 324 316 311 316 329 329 342 340 340 341 343 344 345 348 346 327 319 316 316 316 315 318 325 319 319 320 321 330 335 338 339 340 341 341 341 342 344 344 344 346 346 348 349 349 349 349 346 345 346 346
321 322 324 322 323 325 327 329 326 326 328 331 331 330 331 334 335 337 337 337 336 336 338 338 337 336 336 338 341 344 346 349 348 345 342 330 319 311 309 310 313 329 338 339 341 343 344 346 345 327 312 309 310 311 311 314 324 317 315 316 317 321 330 332 333 336 338 338 339 340 342 344 345 345 346 348 350 352 353 353 352 352 350 350 349
321 322 321 321 322 322 323 323 325 325 325 327 328 330 332 333 334 333 334 332 332 332 334 336 336 336 337 336 337 338 339 342 345 347 341 335 324 319 313 311 311 309 321 331 335 337 329 316 313 313 315 313 311 312 317 317 312 311 312 314 322 330 332 333 334 336 336 337 339 340 342 343 345 347 349 349 350 351 352 354 356 356 356 355 354
321 322 322 321 320 320 321 321 323 324 325 327 329 330 330 330 330 331 330 329 328 330 331 332 332 332 333 334 336 337 338 339 340 343 349 348 338 325 321 322 325 320 320 325 321 318 315 314 314 315 319 323 331 333 334 336 325 317 315 317 325 329 331 333 334 334 335 337 338 339 342 344 345 348 349 350 349 349 349 349 349 349 350 350 350
319 319 317 319 319 319 319 321 325 326 324 325 325 328 326 325 326 329 328 327 325 328 328 330 329 328 329 330 332 334 334 335 335 339 345 341 337 334 333 333 334 329 330 331 329 333 333 333 332 324 322 324 324 326 329 334 337 336 336 335 332 332 332 333 335 336 337 338 339 340 342 344 346 347 347 347 347 349 350 348 348 348 348 347 345
317 315 316 317 319 320 321 328 327 324 324 324 323 322 323 325 325 325 325 325 326 326 326 327 325 326 326 327 328 328 329 331 333 336 338 334 330 329 330 333 334 333 334 336 334 334 337 335 334 340 340 340 340 339 337 336 337 337 339 340 339 337 338 338 339 337 338 340 341 342 342 344 344 345 346 346 347 348 349 347 347 347 347 345 343
317 315 315 316 316 321 323 322 322 322 321 322 321 321 322 326 325 323 324 326 327 328 327 325 328 325 325 326 325 324 326 327 331 322 319 310 315 321 325 328 328 328 329 316 320 329 333 337 339 339 340 339 339 340 341 341 342 342 342 342 342 341 338 336 336 336 337 337 338 340 341 342 343 345 345 345 346 347 348 347 347 346 346 345 343
315 315 316 316 317 319 320 318 318 320 320 320 320 321 332 319 317 320 321 326 321 310 311 322 324 323 321 322 324 323 324 327 319 306 301 299 299 299 301 299 299 308 312 306 313 322 331 335 337 338 339 340 340 340 341 341 341 341 342 336 341 342 341 339 338 339 339 338 339 339 340 341 342 343 344 344 346 347 346 341 347 347 345 344 343
315 314 316 316 318 321 320 318 319 318 318 319 320 321 321 319 309 309 312 315 310 303 301 301 303 307 314 317 320 317 315 309 303 298 298 298 297 297 297 297 298 298 299 308 324 330 332 332 334 336 338 340 340 341 341 341 341 341 341 341 342 341 339 341 341 339 339 339 339 340 340 341 341 342 342 343 344 345 347 346 346 346 345 345 344
312 313 314 316 319 321 319 318 319 318 318 318 320 319 317 316 318 311 308 308 308 304 302 303 303 304 305 307 314 318 315 309 301 298 298 297 298 297 297 298 298 297 297 300 319 325 328 331 332 334 337 338 340 341 342 343 343 343 343 343 343 343 343 343 342 343 342 341 341 340 341 341 342 341 342 342 340 343 344 344 345 345 344 345 345
311 312 314 318 320 320 319 317 318 318 318 319 320 320 318 316 315 316 317 308 307 306 305 304 303 303 302 302 302 303 304 303 298 296 296 297 296 297 297 297 299 298 299 313 321 324 329 331 333 334 336 338 340 342 344 344 345 345 345 345 345 345 345 345 343 345 344 345 344 344 343 342 341 340 339 340 340 341 342 342 344 344 344 344 344
311 313 316 318 318 316 316 316 317 318 319 317 318 319 319 319 317 316 316 316 317 312 308 307 306 304 305 305 305 301 298 296 296 296 296 296 296 298 297 303 302 297 304 320 324 326 329 330 332 334 336 338 340 341 342 344 344 345 345 345 346 347 347 348 346 344 342 342 342 342 342 342 342 343 343 344 343 342 342 341 343 342 343 343 343
310 315 319 320 316 316 316 317 318 318 319 320 317 317 317 318 319 319 316 316 316 315 316 319 314 310 314 309 304 298 296 297 298 298 297 297 299 298 301 319 323 322 316 320 325 326 326 326 328 330 332 334 336 338 340 342 344 344 345 345 346 346 346 345 344 345 344 344 343 341 341 341 343 341 342 342 342 342 342 342 343 343 343 343 343
309 311 312 314 314 314 315 315 316 316 316 317 319 319 319 319 318 318 315 317 317 316 317 316 318 315 311 300 295 297 299 300 299 299 299 301 299 302 320 319 320 320 321 323 322 322 323 322 322 322 323 326 328 329 329 330 332 336 341 344 345 347 347 347 345 345 345 345 344 342 339 343 342 341 343 343 342 341 342 342 342 342 342 342 343
309 309 310 311 312 313 314 315 315 316 320 318 317 316 317 317 318 317 317 315 317 317 316 317 318 320 319 324 319 306 304 303 302 303 304 304 304 313 317 318 316 316 317 317 317 317 316 316 316 317 318 320 322 325 326 326 326 327 326 330 332 335 341 344 346 346 346 345 345 344 343 344 344 344 343 342 341 342 342 342 342 340 339 338 334
309 309 309 310 312 313 313 313 315 318 318 318 317 316 317 317 317 317 317 317 318 318 316 316 321 316 315 315 321 316 313 308 306 307 306 306 311 315 314 314 315 313 313 313 313 312 311 311 312 313 315 317 318 320 321 321 321 322 324 325 327 329 327 331 336 343 344 346 346 346 345 345 346 345 341 342 342 341 341 340 342 343 341 336 336
306 309 309 311 311 311 311 312 314 315 316 317 317 318 318 317 317 316 315 315 315 315 316 315 315 315 314 314 310 314 313 310 310 310 311 311 313 312 311 310 311 312 312 311 310 310 309 309 311 312 313 314 315 316 317 317 317 318 319 320 321 324 326 328 330 331 333 338 342 345 346 346 346 346 345 344 343 342 343 342 341 341 341 341 341
305 305 307 310 310 311 311 312 313 313 314 314 313 314 314 314 314 314 314 314 314 315 315 315 315 315 314 311 310 308 308 310 309 310 310 310 310 309 308 308 309 310 309 308 308 307 307 308 309 310 310 311 312 313 314 314 314 314 315 316 316 317 320 322 324 326 328 329 329 331 333 337 341 343 345 345 345 345 344 343 342 341 341 341 341
304 305 308 308 308 308 310 311 310 311 311 311 312 313 313 315 315 316 314 314 314 315 315 315 314 314 314 307 303 300 307 309 308 310 309 310 309 307 307 307 308 308 308 307 307 306 306 307 307 308 308 309 310 311 311 312 312 312 312 313 313 314 316 317 319 321 322 322 324 325 327 329 329 330 330 333 329 331 336 340 341 342 340 341 341
305 304 304 305 306 307 307 308 308 308 308 310 310 311 312 313 314 314 314 314 315 315 314 314 314 314 309 300 295 293 302 308 310 309 308 309 308 308 309 307 306 307 306 306 305 305 306 306 306 307 307 308 308 309 310 309 310 310 310 310 310 311 311 312 314 315 316 317 318 319 320 320 320 320 322 321 326 330 332 334 336 339 341 341 340
305 304 303 303 304 305 305 305 306 305 306 307 308 312 314 313 312 313 313 313 314 314 313 313 313 312 310 302 302 301 304 306 311 308 309 309 309 309 306 304 304 305 306 306 306 306 306 306 305 305 305 306 307 308 308 308 309 309 309 308 307 307 307 308 310 311 312 312 312 313 313 313 314 315 316 318 321 323 325 328 330 332 334 337 337
303 303 303 302 303 304 305 304 305 307 307 310 311 311 311 311 311 310 310 311 312 312 313 313 312 310 310 307 304 304 306 305 305 306 308 309 307 305 303 303 304 305 305 305 305 305 305 305 304 304 305 306 307 308 308 308 309 308 307 305 305 304 304 305 306 306 306 306 306 307 308 309 310 311 313 315 317 318 321 323 325 327 330 332 334
300 301 301 300 302 302 303 305 306 307 309 309 308 308 311 310 309 310 310 311 312 313 313 313 312 310 309 308 305 305 304 303 306 306 304 303 302 302 303 303 303 303 303 304 304 304 304 303 304 304 304 305 306 307 307 308 309 308 306 305 303 302 302 302 302 303 303 302 302 303 304 305 306 309 310 312 314 315 316 318 320 321 323 325 327
300 301 301 301 301 303 304 304 306 305 305 306 306 307 307 308 308 309 310 310 311 312 312 312 311 311 311 308 307 306 303 302 302 302 304 302 302 302 303 302 302 303 303 303 304 303 304 304 304 304 303 303 304 304 303 304 305 306 306 305 303 302 302 302 302 301 300 299 299 300 300 302 303 306 310 311 312 313 314 316 318 319 320 321 322
299 300 301 301 302 303 304 304 303 304 304 306 306 305 306 307 308 309 310 310 310 310 310 309 309 307 307 306 305 304 303 302 301 301 301 302 302 302 301 301 302 302 302 303 303 303 303 304 303 302 302 302 300 299 299 300 301 302 303 302 301 301 301 300 299 298 297 296 297 297 299 300 302 305 307 309 311 312 314 316 317 318 320 321 322
301 301 302 303 303 303 303 303 303 305 304 303 304 304 306 306 306 307 307 308 308 308 308 307 306 305 306 304 304 304 303 303 302 302 302 301 301 301 301 301 302 302 302 302 302 302 302 301 301 300 301 300 298 297 296 296 297 298 298 299 299 298 298 296 295 294 294 295 295 296 298 299 301 303 305 308 310 312 313 314 317 319 321 322 322
300 300 300 301 302 303 302 302 302 302 302 302 303 304 304 304 305 305 305 306 306 306 305 304 303 303 303 303 303 303 303 303 301 301 301 300 300 301 301 301 301 300 301 300 300 300 300 299 299 299 299 298 296 295 294 295 295 295 296 296 296 296 292 292 293 292 293 293 294 296 297 299 301 304 306 308 310 311 313 316 318 318 318 318 319
297 298 298 299 300 300 301 301 301 301 302 302 301 302 303 303 303 304 304 304 304 304 303 302 302 301 301 301 301 301 301 301 300 300 300 300 300 301 301 300 299 299 299 298 298 298 297 297 297 297 296 296 295 294 294 294 294 294 295 294 293 290 289 290 291 292 293 294 295 297 298 300 302 304 307 310 313 314 315 316 316 315 315 314 314
296 296 297 297 298 299 298 298 299 300 300 300 300 301 301 301 301 302 302 302 302 301 302 300 300 300 300 300 301 301 300 301 301 300 300 299 299 300 299 299 299 299 297 296 296 295 295 295 295 295 295 295 294 293 293 293 294 294 294 293 290 288 288 289 290 290 291 292 294 297 300 305 308 312 314 313 312 312 312 313 313 312 311 310 310
Wind_Speed
7 8 8 7 6 7 7 6 6 6 6 6 7 7 6 6 6 6 5 6 6 6 7 8 8 8 8 7 7 6 6 6 5 4 5 5 5 4 4 3 4 4 3 4 3 3 3 3 3 4 3 3 3 1 3 3 3 1 0 2 1 1 2 2 2 4 4 2 2 2 3 2 3 2 3 4 5 5 3 3 4 5 6 6 6
6 6 6 8 9 8 7 6 6 5 6 6 6 6 7 7 7 6 6 6 6 7 8 7 8 9 8 8 7 7 7 6 6 5 6 5 5 4 4 5 5 4 3 4 4 3 3 3 4 4 3 3 3 1 1 3 3 4 3 3 3 4 3 2 3 2 4 3 3 4 3 0 2 1 1 4 5 4 7 6 5 4 5 6 6
4 6 7 6 6 6 7 7 6 7 8 7 7 7 7 6 6 7 7 6 5 6 7 7 7 8 8 8 8 7 7 7 6 6 6 6 6 5 5 5 5 5 5 5 5 4 4 4 4 4 3 3 3 3 2 2 2 3 4 3 3 4 3 3 2 3 4 5 2 2 1 1 1 3 3 2 4 3 5 6 6 5 5 5 6
4 3 5 4 2 3 5 5 8 8 8 8 8 8 7 6 6 7 8 7 7 6 6 7 7 7 8 7 7 7 7 7 7 7 7 7 7 7 6 5 5 6 6 6 5 5 5 4 5 4 4 4 4 3 4 3 3 3 4 4 3 5 3 2 3 4 3 4 4 3 2 3 3 3 3 3 4 5 4 6 6 6 6 6 5
5 3 3 5 5 3 1 2 3 8 8 6 8 8 7 8 6 8 7 8 8 7 6 6 7 7 8 8 7 7 7 7 7 7 7 6 7 7 6 6 6 6 7 7 6 6 6 6 6 4 4 4 4 4 4 5 4 3 4 4 3 4 4 3 4 4 4 4 4 3 2 2 3 3 2 3 5 5 4 4 6 6 7 6 5
4 5 3 3 2 2 1 2 6 4 4 6 8 6 6 7 7 7 8 8 7 8 8 6 7 9 8 8 8 8 7 7 8 8 8 7 7 7 7 7 7 6 6 6 6 6 6 6 6 5 5 5 6 5 4 5 5 5 4 4 4 3 4 4 3 3 3 5 4 5 2 3 3 4 3 3 4 6 7 6 5 5 4 6 6
2 5 4 5 4 4 4 2 3 4 4 6 7 4 3 4 8 9 8 9 8 8 8 8 7 8 9 8 9 8 8 7 8 8 8 8 8 8 8 7 7 6 6 7 7 7 7 6 6 6 6 6 6 6 6 5 5 6 6 5 4 3 4 5 4 3 4 4 3 4 5 4 4 6 4 1 3 4 5 6 7 5 3 3 6
6 3 1 3 3 3 3 2 1 3 4 2 2 6 1 2 1 3 5 8 10 10 9 9 9 8 8 8 9 8 8 8 8 8 8 8 8 8 8 8 7 7 6 6 7 7 7 7 7 7 7 7 7 7 6 6 5 5 6 5 5 4 5 5 4 5 5 4 5 6 4 4 3 4 3 3 5 5 4 5 6 7 8 4 4
6 3 1 2 2 2 1 3 4 2 2 4 2 2 8 6 3 2 2 5 7 8 9 11 10 10 9 9 9 8 8 9 8 8 9 9 8 8 8 8 8 8 7 7 6 7 6 7 7 7 7 9 11 10 9 9 6 7 7 5 6 6 6 6 6 5 6 6 7 5 4 6 6 6 7 6 7 9 5 1 4 7 6 6 7
1 1 1 3 4 4 3 3 4 4 5 5 6 3 6 9 6 5 3 2 4 5 4 6 9 11 11 11 10 9 9 8 10 15 13 10 9 9 8 8 8 7 7 7 7 7 7 7 7 11 12 12 13 13 14 13 12 9 8 6 7 6 7 7 7 6 6 6 7 7 7 7 8 7 7 7 6 4 6 5 5 7 6 7 6
6 7 7 6 4 2 2 4 4 4 3 3 4 7 7 9 7 4 2 2 3 1 4 4 5 7 10 11 11 10 9 9 15 16 17 17 11 9 9 8 7 7 7 7 8 8 7 7 6 8 10 11 12 15 15 15 14 14 14 13 11 9 7 7 8 7 6 7 7 6 7 8 9 7 7 8 6 6 7 5 6 6 6 6 8
6 6 6 5 5 4 3 2 2 2 3 3 4 6 7 7 5 3 3 3 3 3 3 5 5 5 5 7 10 10 10 13 16 16 17 18 15 10 8 8 7 7 7 7 7 7 8 8 7 7 7 8 8 7 10 14 16 16 16 16 15 15 14 11 9 7 6 7 7 8 7 8 9 6 7 5 8 5 6 6 6 7 7 7 5
5 5 4 3 3 3 3 3 3 2 1 1 1 5 5 4 4 3 3 3 3 4 5 4 4 4 5 6 8 9 9 14 16 18 18 18 18 14 8 8 8 8 8 8 7 7 7 7 8 7 7 12 10 8 7 8 11 15 16 16 14 13 13 14 13 10 7 8 8 9 9 7 7 8 6 4 3 4 5 6 5 5 5 6 7
4 3 2 3 3 3 4 4 4 4 3 1 2 1 1 1 1 1 1 1 2 4 4 5 4 3 3 5 5 6 8 11 15 17 18 19 18 14 9 9 8 8 8 9 8 8 8 8 8 8 8 7 7 8 6 6 6 5 6 7 8 12 15 16 16 15 10 7 7 10 10 6 10 9 8 4 4 7 7 8 5 5 6 8 7
4 3 3 3 3 3 4 4 5 6 6 3 2 0 0 1 1 2 1 2 3 4 5 4 4 3 4 3 3 5 7 12 14 17 17 18 18 14 10 9 8 9 9 9 10 10 9 9 9 10 9 8 8 9 8 7 6 7 6 7 8 8 8 9 10 10 10 10 11 12 12 10 10 10 7 5 7 8 8 6 4 4 6 4 4
6 5 6 6 5 4 3 3 3 4 5 5 3 3 2 2 2 2 1 2 3 4 5 4 4 4 3 3 4 5 5 8 11 15 17 17 17 10 9 10 10 10 10 10 10 9 9 9 9 9 10 10 12 15 14 10 8 9 9 9 9 9 9 11 14 13 11 11 11 12 12 13 13 11 9 8 7 6 2 1 2 4 6 5 8
6 6 6 6 6 5 4 5 4 3 4 5 5 3 3 3 2 2 2 3 3 3 4 4 3 3 3 3 5 5 5 2 1 6 12 15 11 8 8 9 9 10 11 10 10 10 9 10 10 10 10 10 14 16 16 14 10 11 11 12 11 10 10 9 12 16 17 18 18 18 18 17 16 16 15 14 10 6 2 5 9 9 6 7 8
4 4 5 5 5 5 4 3 3 3 3 2 3 3 2 2 2 2 2 3 4 4 4 5 4 3 3 4 5 6 4 3 4 2 6 12 12 10 8 8 9 10 10 10 9 9 10 14 13 11 11 11 15 16 17 13 10 11 11 12 12 12 11 8 8 9 15 18 19 18 18 17 16 15 14 14 15 6 6 9 11 6 7 7 9
4 3 4 3 4 4 5 5 5 6 5 5 3 2 3 3 3 2 2 3 4 4 4 4 5 4 4 5 7 7 3 2 9 10 9 8 8 6 6 6 8 8 8 9 9 8 9 11 15 15 13 14 17 17 17 13 11 11 12 12 13 13 12 8 9 10 7 5 7 8 10 13 12 11 12 18 18 12 10 12 9 7 9 9 9
6 5 6 4 3 3 3 4 4 4 5 6 4 4 4 4 5 4 4 3 4 4 4 4 6 5 4 5 6 4 3 4 6 10 10 9 11 6 5 6 8 9 8 8 8 8 9 9 11 14 17 17 17 16 16 16 12 12 10 10 12 14 10 8 9 8 8 8 9 6 8 7 7 7 8 9 10 10 11 11 10 9 9 10 8
6 6 7 6 4 3 4 4 4 5 4 5 2 3 4 5 5 5 5 5 4 4 4 4 5 6 6 5 6 4 3 6 7 9 8 10 10 9 5 7 7 7 7 7 7 8 8 8 8 12 15 17 17 17 16 15 15 11 10 11 13 14 10 5 8 10 8 8 8 8 8 7 8 8 8 8 8 8 8 9 9 9 9 9 9
6 6 6 7 5 4 3 5 3 5 5 6 4 6 5 5 6 6 5 4 4 4 4 5 5 5 6 6 5 6 6 8 7 8 8 8 11 12 6 7 7 6 6 7 7 7 8 7 8 11 15 16 17 18 19 17 17 10 13 16 17 16 12 9 8 8 8 7 7 7 7 7 8 8 8 8 8 8 8 8 9 10 10 10 10
5 5 5 7 7 7 5 5 5 3 5 6 5 6 6 5 5 5 6 6 6 6 6 6 5 5 5 5 6 6 6 5 5 6 8 7 6 9 11 8 7 5 6 7 7 7 6 7 8 13 14 14 15 16 17 18 14 12 18 17 16 15 9 6 6 7 8 8 8 9 9 9 9 9 8 8 8 7 7 8 8 9 9 10 11
5 5 5 5 6 7 8 7 6 5 4 5 6 5 6 4 3 3 4 5 5 6 5 6 6 5 6 5 5 5 6 6 6 7 8 9 7 7 8 11 9 6 4 6 5 6 7 7 6 5 7 6 6 8 11 12 11 14 14 15 14 11 6 6 6 8 8 8 9 10 11 10 9 9 9 8 8 8 8 8 8 9 10 9 11
6 5 5 5 6 6 7 8 7 6 4 4 5 5 5 4 4 3 4 5 5 5 5 5 6 7 7 7 7 6 6 6 6 8 10 11 12 9 8 8 10 6 5 6 6 6 7 12 15 16 17 16 13 11 8 9 11 12 13 14 10 6 7 7 7 6 7 9 10 10 10 11 10 10 9 7 7 6 5 6 8 8 9 9 10
6 6 6 6 6 6 6 8 8 8 5 4 4 3 3 4 5 4 4 3 3 3 4 4 5 5 6 7 7 8 8 5 6 6 5 7 8 12 13 11 9 7 6 8 11 12 12 13 13 13 13 11 9 8 8 8 9 11 11 8 4 6 6 6 6 6 8 9 9 10 10 9 9 10 9 8 7 9 9 9 9 10 9 9 9
6 6 7 7 7 6 6 6 7 7 4 4 3 3 5 5 6 6 5 5 4 2 3 3 4 5 5 6 6 7 8 7 6 5 5 5 6 7 7 8 8 4 4 4 5 5 6 6 6 9 10 13 14 13 12 10 8 7 7 6 7 7 7 7 8 8 9 9 9 9 9 9 9 8 9 8 10 11 10 10 9 11 9 7 8
8 7 7 6 6 6 6 10 10 7 6 4 4 6 5 4 5 6 6 6 7 6 4 3 5 5 5 6 6 6 7 7 6 6 7 7 8 7 6 5 5 5 6 6 6 7 7 7 7 6 6 6 7 5 6 6 8 9 8 7 8 8 9 11 10 8 9 8 8 7 8 7 9 11 10 10 11 11 8 7 9 10 9 6 6
9 8 8 6 7 5 5 4 5 6 7 6 4 2 1 3 4 4 5 4 5 6 7 6 5 4 3 5 6 7 7 7 6 5 7 5 6 7 7 7 6 4 4 5 6 5 5 6 6 6 5 6 7 7 6 6 6 6 7 7 7 8 8 7 9 10 10 8 9 10 11 10 10 8 7 8 10 9 6 7 8 9 9 7 10
8 8 8 7 7 6 5 5 5 6 6 7 8 5 3 2 2 2 5 8 11 10 3 4 7 7 7 6 3 4 7 9 12 14 11 10 9 6 6 8 9 9 10 10 5 4 5 6 6 6 7 7 7 7 7 7 7 7 7 8 8 8 8 8 9 10 8 9 10 10 10 8 8 8 8 9 10 9 8 9 10 8 9 9 10
7 8 8 8 9 8 6 5 5 5 6 6 7 5 4 6 8 7 5 8 7 9 9 9 10 8 3 6 8 9 11 13 11 7 9 10 10 10 9 9 10 11 9 6 3 3 5 7 7 7 7 7 8 8 8 7 8 8 9 9 8 9 9 8 9 8 9 9 9 9 8 8 9 9 9 10 10 10 8 7 8 8 9 9 10
7 7 8 8 9 8 7 6 5 6 6 6 7 5 4 5 6 8 9 6 8 9 8 10 11 13 13 7 4 8 10 5 5 10 10 11 11 12 13 13 13 8 7 4 4 7 5 6 7 7 7 8 8 8 8 8 8 8 8 9 9 8 9 9 8 7 8 8 9 8 8 9 9 9 9 9 9 9 8 8 7 9 9 9 10
7 8 8 8 8 9 7 6 6 6 6 6 5 3 3 4 4 6 7 7 7 8 10 10 11 13 13 14 9 8 12 13 13 11 10 12 12 13 13 13 11 6 2 2 5 7 6 6 7 7 7 8 8 8 8 7 8 8 8 9 9 9 9 9 8 8 8 10 9 9 9 9 9 8 8 8 8 10 9 10 9 9 9 9 10
7 6 7 8 7 7 7 6 5 5 5 3 3 3 3 3 3 3 5 6 7 8 6 7 9 12 13 14 14 10 4 6 8 9 10 10 11 11 11 9 10 1 3 4 6 7 7 9 7 7 6 7 7 7 8 7 7 8 8 9 9 9 10 9 8 10 9 10 10 10 9 8 7 7 8 9 9 9 10 10 9 9 10 10 10
6 9 15 12 6 7 6 6 6 6 6 6 5 4 5 4 3 4 4 5 6 5 7 8 7 7 9 9 9 7 3 3 6 9 8 8 9 12 10 6 8 6 3 3 5 7 9 9 9 9 8 8 8 8 8 8 8 8 8 8 9 9 9 9 9 9 10 10 9 9 9 9 8 8 9 9 9 10 10 9 9 9 10 10 9
7 6 6 8 7 7 7 7 6 6 6 6 6 6 4 4 4 5 5 5 5 5 6 6 6 10 7 7 4 2 4 8 8 7 5 5 8 7 8 7 7 7 7 7 7 7 7 8 8 9 9 9 8 8 8 8 9 10 10 9 8 8 8 9 9 10 10 10 10 10 8 8 9 9 8 9 11 12 10 10 9 9 9 9 8
7 6 6 7 7 7 7 7 7 7 6 6 6 6 5 5 4 5 5 5 5 5 5 5 5 5 2 1 3 2 4 5 7 6 5 6 7 4 5 5 6 7 7 7 8 8 8 8 8 9 9 10 9 9 9 9 9 9 9 9 9 9 9 9 9 8 8 8 8 8 8 9 9 9 9 10 10 10 10 9 9 10 10 10 9
6 7 7 9 9 8 7 7 8 9 7 6 6 6 6 6 5 5 5 5 6 5 5 5 4 4 4 4 3 2 4 4 5 4 5 6 6 6 5 5 5 5 7 7 8 9 9 9 9 9 9 9 9 9 9 9 9 9 9 9 9 8 10 10 10 9 9 10 10 8 8 9 9 9 9 9 10 10 9 8 9 9 10 11 10
5 10 15 15 10 8 7 8 8 8 7 6 6 6 6 6 6 6 6 6 6 6 5 6 5 5 5 4 3 4 3 4 5 4 3 2 2 3 3 3 4 5 5 5 7 8 8 9 9 8 8 8 9 9 8 9 9 9 10 10 10 9 9 8 8 8 8 8 8 7 8 9 9 9 8 9 10 10 9 9 10 10 10 9 9
6 6 8 14 7 7 7 8 7 7 6 7 7 7 7 7 7 6 6 6 6 6 6 6 6 6 5 2 2 1 3 1 1 1 1 1 1 1 1 2 3 4 4 4 4 6 8 8 8 8 8 8 8 9 8 8 8 8 9 9 9 10 9 8 8 8 8 8 8 8 9 9 8 7 7 7 9 10 10 10 10 10 10 10 10
4 7 10 8 10 7 7 8 6 7 7 7 7 6 6 7 6 6 6 7 7 7 7 7 7 6 7 4 3 2 1 3 2 0 0 1 1 1 2 1 1 2 1 3 3 4 6 7 7 7 8 8 8 8 8 8 8 8 8 9 9 9 9 9 9 8 8 8 8 8 8 8 8 9 10 8 7 7 7 6 7 7 8 8 8
4 5 8 7 8 6 6 6 7 9 8 8 7 7 7 6 6 6 6 6 7 7 8 8 7 6 5 3 5 4 2 3 1 0 1 1 1 2 2 1 1 1 1 2 4 5 5 6 7 7 8 8 8 8 8 8 8 8 8 8 8 9 9 9 9 9 9 8 9 8 8 8 9 9 10 9 9 9 8 8 7 7 7 6 6
3 5 7 9 9 8 8 8 7 7 8 8 7 7 7 7 6 6 6 6 7 7 7 7 7 4 2 4 5 5 3 1 1 0 1 2 2 1 1 1 1 1 2 3 3 4 5 6 7 7 8 8 8 8 8 8 8 7 7 7 8 8 9 9 9 9 8 8 9 9 9 9 8 7 8 9 9 9 9 9 9 8 8 8 8
3 5 6 8 8 9 9 7 7 7 6 8 9 7 7 6 6 6 6 7 7 7 7 7 6 5 4 3 3 2 2 1 2 2 2 2 2 1 2 2 2 2 3 3 4 4 5 6 6 7 7 7 8 8 8 8 7 7 6 6 6 7 8 8 8 8 9 9 9 9 7 7 8 8 9 9 9 9 10 10 9 9 8 8 8
5 5 6 6 7 7 8 7 7 7 9 8 7 7 7 6 6 6 6 6 7 7 7 6 5 5 4 4 3 3 4 4 3 3 2 1 2 3 3 2 2 3 4 4 4 4 5 6 6 7 7 7 7 7 7 7 7 7 6 6 7 7 7 7 8 8 9 9 9 9 9 9 8 8 8 8 8 9 10 9 9 9 9 9 9
5 5 6 7 7 7 7 6 8 7 7 7 7 6 7 7 7 7 7 7 7 7 6 6 5 4 3 2 1 1 3 3 3 3 2 3 3 3 3 3 4 4 4 4 4 5 5 6 6 6 7 7 7 7 7 7 7 7 6 5 6 7 7 7 7 8 8 9 9 9 9 9 9 8 10 9 9 9 10 10 10 9 10 10 10
5 5 7 7 8 7 8 8 7 7 6 6 6 7 7 7 7 7 6 7 7 6 6 5 4 3 2 2 1 2 2 2 2 2 3 3 3 4 3 4 4 4 4 4 4 5 5 5 5 6 6 6 6 7 7 7 7 7 6 6 6 7 6 6 7 7 8 9 9 8 8 7 7 7 9 9 8 9 9 9 9 10 9 9 9
4 6 7 7 6 6 6 5 6 9 7 7 8 8 7 7 7 7 6 6 6 6 6 5 4 4 3 2 2 1 2 2 2 2 3 3 4 4 4 4 4 4 4 4 4 5 5 5 5 5 5 5 5 6 7 7 7 7 7 7 6 7 10 12 9 9 8 7 8 8 8 8 7 8 8 9 8 8 9 9 10 9 9 8 8
4 5 6 7 7 6 6 6 6 6 6 7 8 8 8 7 7 7 7 6 6 5 4 4 4 3 3 3 2 2 3 3 3 4 3 4 4 4 3 3 4 4 5 5 5 5 5 5 5 5 5 5 5 6 7 7 8 8 8 8 10 17 17 16 10 9 11 9 8 8 8 8 9 9 9 8 8 9 10 10 10 9 8 8 9
3 5 7 7 7 7 6 6 6 6 6 6 7 8 8 7 7 6 6 6 6 5 4 3 3 3 3 3 3 3 3 3 4 4 4 4 4 4 3 3 3 4 4 4 4 4 4 5 5 5 5 5 5 6 7 7 8 8 8 10 17 18 18 18 17 16 10 6 7 7 7 8 8 8 7 8 8 8 8 8 6 5 5 6 6
3 3 4 7 7 7 6 6 6 6 5 6 7 7 7 7 6 6 6 6 5 4 4 3 3 3 2 3 3 3 3 3 3 3 3 3 4 3 3 3 3 2 2 3 3 4 4 4 5 5 6 6 6 7 7 7 7 9 13 18 17 17 18 16 11 14 14 9 7 7 7 8 8 7 6 5 4 5 6 5 5 4 4 5 5
Wind_Direction
180 185 179 188 182 192 197 192 196 191 189 187 188 197 206 205 204 209 204 209 202 198 192 189 187 189 189 192 193 195 197 199 196 187 193 206 209 206 214 204 212 230 225 255 266 267 275 290 294 288 284 274 256 292 322 303 329 303 283 137 152 151 129 133 185 273 299 262 267 275 303 349 329 14 359 333 330 333 326 281 289 286 283 280 278
148 165 174 183 187 189 195 196 195 197 197 198 198 197 204 208 209 209 209 214 200 201 199 196 191 189 189 193 194 196 198 200 201 189 197 205 216 207 206 204 212 226 225 237 246 245 246 261 285 292 289 259 272 272 255 312 306 311 283 219 226 232 196 152 193 199 274 317 318 314 297 331 305 261 333 327 320 329 324 316 302 274 271 277 281
130 155 157 165 169 179 191 190 195 200 205 205 210 210 203 207 208 208 214 215 205 202 200 200 198 194 193 192 195 196 196 200 201 197 202 202 209 215 207 202 206 216 221 230 236 242 249 253 263 274 286 291 287 278 256 257 284 285 280 269 269 259 223 187 155 226 261 278 237 284 266 294 234 278 306 299 294 287 300 302 300 301 289 283 285
130 133 137 141 136 138 168 197 195 200 209 211 215 217 215 206 203 209 210 210 210 209 201 197 196 199 199 195 194 197 198 200 201 202 204 204 209 212 213 207 208 212 215 220 227 227 235 246 254 252 260 260 267 280 286 271 252 259 273 279 259 272 264 195 202 204 219 252 293 253 271 315 299 278 278 296 294 305 293 293 298 296 297 296 287
138 146 152 151 150 143 131 138 202 210 209 218 220 218 221 217 210 212 206 210 211 206 206 197 192 197 203 202 201 199 200 201 204 206 207 205 207 214 216 214 214 214 216 220 222 219 223 225 236 240 243 247 260 262 264 271 259 234 249 264 264 265 272 230 227 204 213 244 271 272 262 274 252 277 268 299 309 303 300 292 291 293 296 288 286
154 152 146 135 144 145 99 81 77 41 312 242 218 219 223 221 221 219 212 211 211 210 204 202 196 200 205 206 206 208 204 204 206 208 207 207 208 212 217 219 222 220 222 221 222 218 219 223 230 229 232 228 238 242 247 250 256 252 239 250 257 268 272 271 247 235 221 241 237 293 322 272 302 280 255 244 282 301 308 300 302 290 284 303 290
210 159 147 141 141 148 153 161 134 113 85 14 321 239 212 242 225 221 216 214 209 208 210 209 209 202 206 205 206 206 205 205 207 209 209 208 207 209 216 221 223 226 228 227 225 222 222 224 227 225 228 227 233 233 233 236 236 243 244 242 232 223 244 258 253 237 230 249 268 239 263 265 232 278 284 231 243 234 261 299 305 289 285 264 290
347 352 76 125 131 135 141 139 253 150 144 127 340 323 308 134 216 229 219 226 214 206 207 210 214 212 210 209 210 204 201 202 204 206 205 204 204 209 211 215 220 226 231 229 228 226 222 224 225 225 223 228 227 236 223 231 225 237 242 241 247 236 235 237 241 236 242 244 240 263 242 264 289 256 288 333 309 290 225 223 266 289 296 288 257
151 160 144 122 131 152 144 134 136 134 167 148 143 340 322 302 254 238 197 201 223 225 212 205 207 213 216 213 213 209 204 205 201 201 203 206 203 206 206 210 215 223 229 232 229 230 230 226 225 222 221 225 226 228 227 220 216 228 241 227 238 240 249 248 245 251 258 257 271 263 272 280 268 274 287 277 256 256 262 194 263 270 273 291 289
123 175 145 148 147 144 165 175 170 174 153 152 140 130 287 284 264 248 231 221 198 195 214 224 216 210 212 214 213 211 213 212 210 203 200 200 204 209 207 206 209 214 221 230 236 230 232 230 232 231 230 232 232 232 235 234 228 220 228 218 226 231 237 240 243 238 236 245 246 247 256 256 257 249 248 252 251 266 282 273 268 280 303 288 279
53 56 41 26 39 73 151 165 164 155 154 184 133 142 202 240 240 214 275 316 308 267 182 195 220 230 221 214 212 213 215 218 215 208 207 206 203 206 207 211 206 209 214 220 233 238 241 241 243 247 245 243 243 239 238 240 240 240 241 232 219 210 222 230 239 231 225 230 239 236 236 249 254 246 241 255 258 250 258 266 264 280 280 291 294
37 39 41 27 23 21 19 48 113 141 159 181 179 180 192 202 211 196 192 245 255 274 227 200 197 203 217 231 227 220 218 217 213 212 212 213 211 210 212 215 213 211 213 217 227 232 239 242 242 240 240 235 238 244 244 243 242 243 244 244 239 229 219 214 228 237 224 232 239 235 229 237 251 249 255 251 260 268 259 257 257 257 271 274 264
59 39 31 32 17 13 16 23 28 43 84 170 218 205 197 176 178 189 212 233 259 238 241 229 213 205 199 203 222 230 232 224 214 212 213 214 215 215 219 220 221 223 218 219 220 223 227 236 244 242 242 242 240 236 233 245 245 244 248 254 259 257 254 249 240 232 220 223 231 241 226 235 244 248 234 240 231 261 272 264 253 244 240 256 261
65 57 11 23 16 12 18 22 18 5 359 18 55 42 143 176 225 266 290 323 303 287 279 266 267 253 225 209 215 224 227 234 221 217 215 214 215 212 225 222 226 230 229 225 224 221 219 220 231 241 241 243 244 243 235 229 238 246 247 242 243 250 247 240 243 249 244 233 229 239 243 213 239 243 240 223 235 254 263 264 264 271 265 253 256
31 28 23 19 24 10 15 24 26 9 351 356 33 60 265 257 249 244 244 280 292 286 285 284 266 269 291 287 247 223 224 224 219 221 220 217 217 208 220 225 226 230 232 231 229 227 223 219 222 231 237 235 234 231 233 235 235 241 245 248 241 240 238 238 234 231 231 230 234 241 248 239 242 249 249 226 229 242 244 257 251 240 255 281 308
27 19 18 12 15 9 6 11 17 32 353 341 358 16 8 352 318 310 292 272 271 271 272 257 267 278 265 257 268 267 264 246 226 216 217 220 219 212 219 221 225 229 230 231 232 233 232 228 225 230 233 235 238 235 235 237 239 244 246 249 252 248 245 237 234 232 229 227 229 236 241 241 240 244 245 240 245 252 259 307 292 262 272 288 275
24 13 13 6 5 358 4 14 2 7 9 344 332 350 359 351 344 318 305 293 284 277 274 272 269 264 266 258 249 252 249 292 75 218 221 224 216 221 221 225 229 230 233 231 231 232 233 231 230 232 235 237 239 235 237 236 245 248 251 254 254 254 253 253 242 239 240 240 240 240 244 247 248 248 251 254 253 259 337 317 274 264 268 270 269
12 12 8 360 357 0 356 356 352 351 340 345 310 317 343 340 333 313 311 303 299 290 286 289 281 258 258 261 257 263 248 138 58 42 200 212 207 216 219 222 230 232 237 239 235 236 233 232 229 231 235 239 239 237 237 232 239 245 248 252 257 258 258 253 258 244 234 238 243 246 249 254 256 260 260 257 254 223 186 237 250 250 251 240 257
342 357 340 338 347 354 356 355 350 344 344 342 331 357 3 346 315 304 284 275 280 286 289 286 284 274 265 264 265 263 267 169 184 211 216 199 187 212 218 229 243 243 245 246 244 242 244 243 240 238 237 239 239 237 235 226 232 239 242 246 252 256 254 252 250 257 256 253 255 251 260 253 250 246 248 247 247 231 207 226 242 226 243 246 246
334 339 330 318 333 351 358 360 350 349 340 334 332 357 354 346 336 320 311 289 290 291 291 286 291 292 286 276 279 276 245 252 237 217 208 209 197 189 191 202 226 239 242 247 252 249 247 251 249 245 243 246 245 240 237 224 225 235 236 240 247 254 249 235 242 248 260 256 260 242 242 244 243 234 234 241 240 228 220 217 220 217 227 243 241
350 342 344 322 324 341 352 350 346 341 345 332 320 346 350 343 331 328 318 320 317 314 319 315 306 301 298 294 289 298 246 253 260 253 229 205 202 191 197 205 220 227 235 242 243 249 251 246 250 246 240 240 243 244 241 232 224 229 227 233 235 245 254 247 255 251 255 256 256 259 254 252 247 240 239 237 237 235 226 218 216 212 215 231 239
345 350 348 343 316 328 340 336 345 342 341 342 344 347 348 347 341 341 339 347 5 8 359 355 345 332 319 311 306 300 282 267 274 271 258 229 194 199 201 222 211 216 230 237 245 249 249 251 250 250 247 242 242 243 242 239 233 230 241 239 247 253 257 254 264 268 264 261 260 257 257 255 257 253 246 241 238 236 233 225 216 218 217 224 227
345 344 345 350 344 331 324 341 336 347 346 345 342 342 340 352 352 9 29 26 20 11 1 360 359 356 349 344 344 340 335 323 301 301 302 293 257 210 224 236 224 220 229 239 241 252 250 253 258 255 254 253 251 250 249 247 242 237 243 251 255 265 282 283 279 280 277 273 270 267 262 258 260 259 253 253 248 240 240 233 228 221 225 229 229
335 339 346 342 340 340 333 327 328 335 349 347 341 340 334 341 351 25 40 32 18 1 353 350 348 347 342 329 329 331 332 330 315 310 309 305 291 257 247 249 260 251 265 267 265 264 267 258 266 308 348 339 322 303 285 274 255 253 250 253 259 266 265 263 257 252 256 261 262 262 262 259 256 256 252 245 245 236 236 238 238 232 230 233 233
332 332 336 336 339 336 333 333 320 317 336 350 345 345 346 354 4 358 25 26 19 2 344 345 342 336 332 329 324 325 327 326 323 317 302 286 286 291 287 285 283 274 277 264 263 268 296 318 320 315 310 303 293 297 295 273 258 253 254 252 253 245 243 240 244 242 244 245 248 251 256 256 253 257 260 256 251 248 243 249 244 243 240 241 243
341 335 330 333 331 330 335 329 325 309 331 338 343 346 9 14 10 356 13 10 7 349 334 337 335 331 324 321 323 320 319 317 322 329 345 5 12 12 2 352 330 306 271 281 287 295 296 292 293 294 290 288 287 272 261 254 237 232 236 232 221 226 223 228 231 226 234 240 240 243 248 255 256 254 255 255 254 250 246 250 252 253 244 246 256
337 338 331 325 322 328 333 323 315 312 330 338 344 357 4 11 5 359 356 349 338 320 322 326 325 320 314 317 315 317 315 320 330 337 7 357 345 349 352 343 341 355 333 293 291 297 301 299 289 279 272 275 274 270 269 262 251 240 232 219 219 219 221 218 224 228 236 239 242 244 247 247 252 256 249 240 243 245 236 241 248 255 254 251 254
337 324 320 319 316 318 320 326 333 322 323 324 342 350 356 9 12 353 342 336 332 322 315 313 307 302 307 309 315 315 316 317 324 340 354 354 336 339 338 332 332 333 323 321 323 314 310 307 296 286 283 282 276 270 252 245 244 250 247 233 225 223 226 228 231 234 242 241 246 251 254 246 243 239 239 238 241 247 240 235 242 254 256 254 257
337 329 319 314 310 311 312 308 318 323 313 303 299 283 292 357 344 328 310 310 314 318 314 306 289 278 287 306 319 318 314 316 314 11 5 357 330 328 337 334 326 311 300 337 316 301 310 305 303 296 291 289 288 285 285 276 267 253 250 243 231 227 225 214 224 230 231 230 237 241 248 246 249 251 254 258 256 256 242 239 242 244 255 234 245
338 334 327 317 307 306 311 315 316 317 318 306 308 314 321 331 246 281 302 313 327 336 352 292 305 320 321 295 276 276 296 297 309 339 345 346 340 323 299 300 297 292 304 316 287 296 294 299 293 290 287 284 282 279 278 280 280 276 266 258 254 247 233 229 231 238 231 228 235 240 247 253 256 250 245 248 256 251 237 224 244 235 242 244 247
335 329 328 324 313 304 304 306 302 304 305 307 297 274 280 314 319 320 305 310 319 328 343 331 325 319 275 300 307 295 282 286 304 341 344 336 328 330 330 312 297 290 293 320 283 261 291 289 288 285 276 270 268 271 269 268 264 263 268 269 263 256 250 244 241 236 236 237 240 243 246 243 247 247 245 246 250 253 251 237 242 246 243 247 250
330 323 318 311 309 302 294 296 302 301 305 304 291 266 290 314 320 319 322 327 321 325 329 328 322 317 313 298 288 312 310 303 350 339 329 330 333 333 329 325 317 314 291 238 292 292 286 280 277 270 273 270 265 264 262 260 259 257 260 263 262 257 251 251 246 237 241 242 243 244 241 241 244 246 246 251 253 259 258 256 245 248 251 249 251
327 323 320 316 312 305 299 304 312 317 310 312 315 328 328 325 315 317 323 323 310 292 301 306 306 306 306 309 295 246 268 301 325 322 327 330 334 331 323 314 316 329 78 324 282 291 287 278 277 274 274 275 274 272 267 262 259 259 255 257 262 260 253 248 239 241 240 243 245 248 246 244 242 243 245 247 250 256 252 250 248 246 248 250 252
317 313 319 327 334 335 331 319 320 327 326 334 341 343 334 314 296 299 311 319 329 323 295 264 282 306 312 314 337 358 336 306 300 314 326 333 327 322 323 308 303 344 121 322 307 301 305 307 302 296 289 282 283 283 282 279 273 268 266 262 261 262 261 256 248 248 250 252 250 250 248 248 240 238 244 245 243 249 254 252 249 249 251 246 252
321 324 334 344 345 335 329 327 326 320 316 314 308 302 302 303 304 304 305 308 309 305 304 314 310 304 312 333 350 5 5 314 319 320 329 331 332 320 312 342 358 9 2 325 330 337 341 337 335 335 333 327 323 317 309 305 293 282 272 269 265 263 264 261 255 251 248 249 247 244 241 241 242 237 242 250 253 252 252 252 247 243 251 254 251
326 323 325 338 340 337 329 324 316 315 306 300 292 286 284 286 295 299 302 303 297 296 303 287 294 307 11 70 45 34 331 326 332 335 329 342 339 348 13 359 353 359 351 350 350 339 339 339 340 334 332 329 327 328 331 329 329 326 322 312 302 283 273 269 263 255 250 248 246 247 245 243 241 241 243 246 250 251 253 250 247 244 243 248 247
331 336 341 339 336 331 329 325 322 315 312 304 298 295 295 295 295 296 295 290 286 292 283 295 309 321 25 68 52 327 323 335 348 353 0 351 348 37 38 18 360 352 353 346 346 342 340 338 335 329 325 323 321 322 324 321 322 317 318 319 320 317 315 308 290 268 258 252 248 246 244 246 244 240 238 245 248 248 247 246 246 247 245 245 247
331 337 339 336 333 334 331 328 322 324 323 321 313 306 295 288 283 285 288 290 296 299 303 302 303 304 306 290 321 340 313 321 340 16 10 14 23 35 32 22 13 360 346 345 342 337 332 326 324 320 317 314 313 319 322 322 322 319 317 316 312 307 310 310 307 296 275 258 255 254 255 253 248 246 238 239 246 250 246 241 241 246 244 242 239
325 335 334 331 333 332 328 324 323 327 325 326 328 329 327 322 318 313 305 304 301 300 298 299 296 292 288 279 297 304 332 5 12 360 1 10 34 47 41 25 7 354 346 347 337 330 323 318 315 314 314 313 313 316 318 317 319 318 319 317 313 312 315 318 318 317 322 317 308 286 267 256 253 248 242 243 248 248 247 241 237 237 240 236 231
334 326 320 329 326 324 323 321 321 321 321 328 328 326 321 317 312 306 305 303 300 298 296 297 296 290 284 256 268 340 2 305 260 275 322 15 24 25 68 15 7 352 343 326 325 321 315 313 309 308 311 310 310 311 312 311 312 311 311 311 312 311 312 314 313 316 314 317 310 313 316 320 317 309 285 260 256 255 251 243 237 232 232 236 236
328 328 327 322 321 322 317 318 318 319 324 323 318 314 308 309 308 311 309 305 301 299 296 290 287 283 286 261 219 196 262 285 285 254 356 346 347 325 329 353 360 6 322 305 306 309 307 304 307 306 305 304 305 307 306 308 307 308 307 309 309 306 309 309 312 312 312 307 308 310 311 312 315 316 310 306 314 309 298 289 273 252 243 237 236
336 329 323 319 318 312 308 311 318 320 316 310 310 307 305 301 302 303 302 302 298 295 293 289 287 288 307 226 221 223 249 275 251 350 354 327 307 316 316 350 90 70 292 290 298 303 307 306 304 305 303 302 303 303 303 303 304 304 305 307 307 309 308 308 312 310 308 308 311 311 310 311 311 308 300 298 295 294 290 282 274 276 270 262 249
341 334 326 317 313 310 312 315 311 302 300 300 296 300 304 309 306 306 303 300 297 294 291 288 287 289 285 228 248 255 244 252 319 287 281 286 291 279 317 34 3 297 273 278 284 288 290 293 295 295 299 299 299 297 296 295 297 299 301 305 308 309 306 306 307 308 311 312 309 308 305 303 299 297 297 296 296 297 293 292 291 284 282 274 274
332 332 322 312 307 305 303 299 291 289 283 292 302 308 309 305 305 305 301 295 292 289 285 280 276 275 283 281 257 261 264 254 261 260 284 287 291 339 9 1 348 312 292 283 283 280 283 284 288 290 290 291 291 290 290 289 286 286 291 295 296 299 303 305 307 309 314 310 306 303 299 298 296 296 297 300 305 302 298 295 290 286 283 280 277
329 322 313 302 293 287 291 292 295 299 305 311 309 304 304 305 303 298 294 291 290 287 282 280 277 272 275 275 262 265 271 281 289 300 292 320 5 16 10 356 333 311 300 291 282 282 279 282 281 288 290 291 293 292 292 293 288 279 276 284 289 296 299 302 303 306 307 304 301 300 297 297 299 300 297 298 295 294 290 290 291 292 288 279 278
316 306 299 294 296 296 300 302 306 310 312 308 308 311 310 306 298 294 292 293 294 291 288 287 288 290 295 290 273 283 292 298 305 302 333 4 10 2 350 328 313 305 300 298 298 294 291 287 288 288 296 298 300 304 305 303 301 295 286 281 287 289 291 293 301 305 299 294 290 288 287 287 289 288 288 288 287 282 281 284 284 282 281 280 276
307 294 299 298 297 297 299 303 305 302 303 310 311 308 302 302 305 302 297 299 300 299 299 299 304 297 292 268 250 264 281 284 288 317 346 351 348 334 326 318 313 307 303 302 302 301 302 300 298 299 297 302 316 315 311 307 307 303 299 292 289 293 293 303 304 294 283 277 274 271 272 269 276 281 285 285 282 283 284 280 276 273 269 265 265
311 317 312 304 291 286 291 298 307 313 314 315 310 303 304 307 306 304 303 302 304 304 306 305 297 296 296 292 287 284 297 304 325 336 338 335 321 316 315 315 314 314 310 306 305 307 309 309 306 305 308 317 324 319 314 311 307 306 303 304 301 303 307 307 294 281 269 267 263 261 258 259 261 264 268 271 272 278 280 281 279 276 272 272 270
326 320 317 315 313 317 317 314 311 315 313 309 303 302 301 296 295 297 298 300 304 306 309 307 303 311 316 314 321 323 316 318 316 323 324 310 301 300 308 318 324 320 318 316 317 316 320 321 322 319 318 323 328 324 317 314 311 311 313 312 309 310 307 297 287 282 278 274 263 256 254 254 257 259 259 262 267 269 270 271 271 275 279 276 274
342 335 328 322 315 314 320 325 320 312 313 311 307 303 301 299 299 299 302 304 304 303 305 312 307 306 301 305 304 305 311 314 321 319 315 307 306 307 313 320 320 321 325 331 334 334 333 329 323 322 325 326 333 334 324 315 311 312 314 315 313 310 306 303 296 288 278 253 254 243 243 247 250 247 247 252 260 266 269 269 273 274 277 283 282
359 340 331 326 321 326 330 315 303 302 304 302 295 300 305 303 299 301 301 299 295 294 294 284 276 283 283 289 305 311 308 308 315 328 338 337 329 324 321 318 320 323 341 340 332 332 329 332 335 334 334 337 336 333 327 319 316 319 319 315 313 313 311 307 302 297 290 271 254 251 243 249 245 251 260 265 273 275 276 286 287 287 289 288 290